sat.trackr.live / text

‹ back to catalog

STARLINK-35204

NORAD 65694 · 2025-212U

PAYLOAD ACTIVE UNKNOWN

§ Identity

Operator
Country
US
Launch date
2025-09-21
Launch site
AFETR
Launch vehicle
Mass (kg)
RCS (m²)

Purposes: comms

External: N2YO · Heavens-Above · Gunter

§ Orbital elements

Epoch: 2026-09-20T07:10:13.148256Z

Period
93.85 min
Inclination
53.1583°
Eccentricity
0.0001945
Mean motion
15.34410440 rev/d
Perigee alt
461.3 km
Apogee alt
464.0 km
Semi-major
6,840.8 km
B*
4.6146e-4
RAAN
158.5770°
Arg perigee
39.6962°
Mean anomaly
320.4183°
Rev number
5,709

§ Raw data

STARLINK-352041 65694U 25212U   26263.29876329  .00015252  00000+0  46146-3 0  99952 65694  53.1583 158.5770 0001945  39.6962 320.4183 15.34410440 57092

JSON: /api/v1/satellites/65694 · /tle

For live sub-satellite position, see the globe view (requires WebGL).

§ Visibility from observer

Set your observer location to see the next 7 days of passes ≥ 10°. The values pass through the URL so the page stays shareable.

No JS? Fill the form by hand. The geolocation button needs JavaScript.